EW3803 Weather Reports


time (UTC)temp
C
wind
direction
speed
KPH
gust
KPH
rain 1hr
cm
rain 24hr
cm
rain mn
cm
humidity
%
barometer
mb
20180820170202 25 305 12.9 17.7 0.00 0.00 0.00 67 1014.3
20180820164758 25 282 8.0 17.7 0.00 0.00 0.00 67 1014.3
20180820163200 25 340 8.0 20.9 0.00 0.00 0.00 67 1014.3
20180820161655 25 287 8.0 19.3 0.00 0.00 0.00 66 1014.6
20180820160155 25 317 9.7 19.3 0.00 0.00 0.00 65 1014.5
20180820154654 25 330 12.9 22.5 0.00 0.00 0.00 66 1014.6
20180820153152 25 344 9.7 19.3 0.00 0.00 0.00 66 1014.8
20180820151655 25 337 6.4 19.3 0.00 0.00 0.00 65 1014.9
20180820150152 25 317 9.7 17.7 0.00 0.00 0.00 64 1015.0
20180820144650 25 288 11.3 22.5 0.00 0.00 0.00 64 1015.1
20180820143152 25 292 6.4 19.3 0.00 0.00 0.00 64 1015.3
20180820141652 25 326 9.7 19.3 0.00 0.00 0.00 65 1015.3
20180820140148 25 287 8.0 19.3 0.00 0.00 0.00 65 1015.5
20180820134647 26 280 8.0 17.7 0.00 0.00 0.00 62 1015.6
20180820133146 26 244 9.7 19.3 0.00 0.00 0.00 62 1015.7
20180820131646 25 301 8.0 17.7 0.00 0.00 0.00 63 1015.8
20180820130148 26 295 11.3 19.3 0.00 0.00 0.00 61 1015.9
20180820124645 26 263 11.3 17.7 0.00 0.00 0.00 60 1015.9
20180820123147 26 250 6.4 19.3 0.00 0.00 0.00 60 1015.9
20180820121642 26 292 8.0 16.1 0.00 0.00 0.00 60 1016.1
20180820120145 26 268 6.4 19.3 0.00 0.00 0.00 61 1016.2
20180820114646 26 248 8.0 16.1 0.00 0.00 0.00 59 1016.2
20180820113141 26 273 9.7 14.5 0.00 0.00 0.00 58 1016.2
20180820111637 25 231 8.0 14.5 0.00 0.00 0.00 60 1016.2
20180820110136 25 259 4.8 14.5 0.00 0.00 0.00 60 1016.2
20180820104635 25 244 11.3 17.7 0.00 0.00 0.00 61 1016.2
20180820103136 25 260 6.4 16.1 0.00 0.00 0.00 62 1016.2
20180820101629 25 224 4.8 14.5 0.00 0.00 0.00 63 1016.2
20180820100127 24 240 8.0 14.5 0.00 0.00 0.00 64 1016.1
20180820094628 24 256 6.4 14.5 0.00 0.00 0.00 64 1016.1
20180820093125 24 216 3.2 12.9 0.00 0.00 0.00 64 1016.0
20180820091642 24 218 1.6 8.0 0.00 0.00 0.00 64 1015.8
20180820090124 23 248 8.0 12.9 0.00 0.00 0.00 65 1015.6
20180820084620 23 215 6.4 12.9 0.00 0.00 0.00 67 1015.6
20180820083124 23 207 6.4 11.3 0.00 0.00 0.00 69 1015.6
20180820081609 22 196 8.0 12.9 0.00 0.00 0.00 72 1015.4
20180820080104 21 196 6.4 9.7 0.00 0.00 0.00 75 1015.2
20180820074640 20 180 4.8 11.3 0.00 0.00 0.00 80 1015.2
20180820073125 20 190 4.8 11.3 0.00 0.00 0.00 83 1015.1
20180820071648 20 184 6.4 16.1 0.00 0.00 0.00 86 1014.9
20180820070053 19 200 6.4 11.3 0.00 0.00 0.00 87 1014.9
20180820064602 18 185 8.0 12.9 0.00 0.00 0.00 87 1014.7
20180820063058 18 173 9.7 14.5 0.00 0.00 0.00 88 1014.6
20180820061558 18 192 9.7 12.9 0.00 0.00 0.00 88 1014.5
20180820060108 18 191 9.7 12.9 0.00 0.00 0.00 88 1014.4
20180820054743 18 190 8.0 16.1 0.00 0.00 0.00 88 1014.4
20180820053053 18 168 8.0 16.1 0.00 0.00 0.00 88 1014.2
20180820051553 18 164 8.0 14.5 0.00 0.00 0.00 88 1014.1
20180820050059 18 184 8.0 12.9 0.00 0.00 0.00 88 1014.0
20180820044545 18 165 8.0 14.5 0.00 0.00 0.00 88 1014.0
20180820043156 18 193 11.3 16.1 0.00 0.00 0.00 89 1013.9
20180820041549 18 202 11.3 20.9 0.00 0.00 0.00 90 1014.0
20180820040056 18 186 14.5 19.3 0.00 0.00 0.00 90 1014.0
20180820034541 18 194 11.3 19.3 0.00 0.00 0.00 90 1013.9
20180820033056 18 187 12.9 20.9 0.00 0.00 0.00 89 1013.9
20180820031538 18 171 14.5 19.3 0.00 0.00 0.00 90 1013.8
20180820030036 18 194 11.3 19.3 0.00 0.00 0.00 90 1013.7
20180820024535 18 185 11.3 17.7 0.00 0.00 0.00 90 1013.7
20180820023033 18 166 9.7 16.1 0.00 0.00 0.00 90 1013.9
20180820021555 18 187 8.0 14.5 0.00 0.00 0.00 90 1014.0
20180820020031 18 186 12.9 19.3 0.00 0.00 0.00 90 1014.0
20180820014531 18 192 16.1 19.3 0.00 0.00 0.00 90 1014.0
20180820013027 18 182 11.3 19.3 0.00 0.00 0.00 90 1014.2
20180820011526 18 190 16.1 22.5 0.00 0.00 0.00 89 1014.3
20180820010026 19 188 17.7 20.9 0.00 0.00 0.00 89 1014.4
20180820004552 19 194 16.1 22.5 0.00 0.00 0.00 89 1014.5
20180820003018 19 199 16.1 20.9 0.00 0.00 0.00 88 1014.7
20180820001522 19 188 14.5 22.5 0.00 0.00 0.00 88 1014.9
20180820000016 19 184 14.5 22.5 0.00 0.00 0.00 88 1015.0
20180819234540 19 175 16.1 22.5 0.00 0.00 0.00 89 1015.2
20180819233010 19 176 16.1 24.1 0.00 0.00 0.00 89 1015.2
20180819231508 19 194 17.7 25.7 0.00 0.00 0.00 89 1015.3
20180819230006 19 189 19.3 27.4 0.00 0.00 0.00 89 1015.4
20180819224506 19 198 17.7 24.1 0.00 0.00 0.00 90 1015.4
20180819223010 19 191 14.5 22.5 0.00 0.00 0.00 91 1015.4
20180819221503 19 190 11.3 20.9 0.00 0.00 0.00 91 1015.3
20180819220004 19 184 12.9 19.3 0.00 0.00 0.00 91 1015.3
20180819214513 19 204 12.9 19.3 0.00 0.00 0.00 91 1015.2
20180819213002 20 194 16.1 25.7 0.00 0.00 0.00 90 1015.2
20180819211501 20 191 14.5 20.9 0.00 0.00 0.00 89 1015.2
20180819205959 20 198 14.5 19.3 0.00 0.00 0.00 89 1015.1
20180819204501 20 186 9.7 17.7 0.00 0.00 0.00 88 1015.0
20180819202958 20 193 11.3 16.1 0.00 0.00 0.00 86 1015.0
20180819201457 20 196 8.0 14.5 0.00 0.00 0.00 85 1014.8
20180819200001 21 188 9.7 16.1 0.00 0.00 0.00 84 1014.7
20180819194459 21 197 9.7 14.5 0.00 0.00 0.00 83 1014.6
20180819193000 21 200 9.7 14.5 0.00 0.00 0.00 81 1014.6
20180819191456 21 215 9.7 14.5 0.00 0.00 0.00 78 1014.6
20180819185955 22 196 9.7 14.5 0.00 0.00 0.00 75 1014.6
20180819184458 23 205 6.4 11.3 0.00 0.00 0.00 70 1014.5
20180819182959 23 232 6.4 11.3 0.00 0.00 0.00 65 1014.6
20180819181455 23 293 6.4 16.1 0.00 0.00 0.00 62 1014.6
20180819175952 23 281 6.4 17.7 0.00 0.00 0.00 69 1014.6
20180819174456 23 297 11.3 17.7 0.00 0.00 0.00 65 1014.7
20180819172950 24 247 11.3 20.9 0.00 0.00 0.00 55 1014.7
20180819171452 25 284 6.4 17.7 0.00 0.00 0.00 55 1014.8